Theta_e
286 285 285 284 283 283 282 282 281 280 280 280 280 280 281 281 281 280 280 280 280 279 279 278 278 278 279 278 278 279 278 277 278 278 277 278 278 277 278 277 277 277
285 285 285 284 283 283 282 281 281 280 280 280 280 280 280 280 280 280 279 279 279 278 278 278 278 277 277 277 277 278 277 276 276 279 277 276 277 277 276 276 276 276
284 284 283 283 282 281 281 281 280 280 280 280 280 280 280 279 279 279 279 278 278 277 277 277 276 276 276 276 276 277 276 275 275 275 276 275 276 276 275 276 275 276
283 283 282 282 281 281 281 280 280 280 280 280 280 280 280 280 279 278 278 278 277 276 276 276 276 275 275 275 275 276 275 275 275 275 274 275 275 275 275 275 276 275
282 282 281 281 281 281 280 280 280 280 280 280 279 279 279 278 277 277 277 276 276 276 276 275 275 275 275 275 274 275 275 275 274 274 274 273 274 275 276 275 274 274
281 281 281 281 281 280 280 279 279 279 279 278 278 278 277 277 277 276 276 276 275 275 275 274 274 274 274 274 274 274 274 275 274 273 273 273 273 274 276 275 274 273
281 281 281 281 280 279 279 279 279 279 278 278 278 277 277 277 276 276 276 276 276 276 275 274 274 274 274 273 273 273 273 273 273 273 272 272 273 273 273 274 273 273
281 281 280 280 280 280 279 278 278 278 277 277 277 276 276 276 276 277 277 277 276 276 275 275 275 274 273 273 272 272 272 274 273 272 272 272 272 272 273 274 273 273
281 280 279 279 279 279 278 277 277 277 277 276 276 276 276 276 277 277 277 276 275 275 275 274 274 273 272 272 272 271 271 271 272 271 272 272 272 272 273 273 272 272
280 280 279 279 279 279 278 278 278 278 278 277 276 276 276 277 277 276 275 275 275 274 274 273 273 272 271 271 271 270 270 271 271 271 272 272 272 272 272 272 272 272
279 280 280 279 279 279 278 278 278 277 277 277 276 275 276 276 276 275 275 275 274 273 273 272 271 271 271 270 270 270 270 271 271 272 272 272 272 272 274 272 272 271
279 279 279 279 279 278 278 278 277 277 276 276 276 275 275 275 275 275 274 273 273 272 271 270 270 270 270 270 270 271 271 271 272 271 272 272 272 272 272 272 271 271
279 279 279 279 278 278 277 277 276 276 276 276 276 275 275 274 274 274 273 272 272 271 271 270 270 270 269 269 270 270 271 271 271 272 272 272 272 272 271 271 271 271
280 279 279 278 277 277 276 276 276 276 276 275 275 275 274 273 273 273 272 272 272 272 271 270 270 269 269 270 270 270 270 271 271 271 271 271 271 271 271 271 271 271
279 278 278 277 277 276 276 276 275 275 274 275 275 274 274 273 273 273 272 272 272 271 271 270 270 269 270 270 270 271 272 271 272 271 270 269 270 270 270 271 270 270
278 277 277 276 276 275 275 275 275 274 274 274 274 273 273 273 273 273 272 271 270 269 269 270 270 270 273 276 275 272 273 272 272 271 270 270 269 269 269 269 270 270
277 276 275 275 276 275 275 274 274 274 274 274 273 273 272 272 272 272 271 271 270 270 269 270 270 271 275 277 277 277 274 272 272 272 272 271 269 269 268 269 269 269
276 275 275 275 275 275 274 274 274 273 273 273 272 272 271 271 271 271 271 270 270 269 269 269 269 274 276 277 277 276 276 274 273 272 272 271 271 270 270 269 269 268
276 275 275 275 275 274 274 273 273 273 272 272 271 271 271 270 271 271 270 269 269 269 268 268 268 274 276 277 276 276 276 275 273 272 271 271 271 271 270 269 268 268
275 275 274 274 275 274 273 272 272 272 272 272 271 271 271 271 270 269 269 268 268 268 267 267 267 272 275 276 276 276 276 275 273 272 272 271 270 270 268 267 267 266
275 274 274 274 274 273 273 272 272 272 272 271 271 271 270 270 269 268 267 267 267 266 266 265 266 272 274 276 276 276 276 276 273 272 270 269 269 268 268 267 267 268
274 274 274 273 273 272 272 272 272 271 271 271 270 270 269 268 267 267 267 267 266 264 264 263 264 272 274 276 276 276 276 273 271 270 269 269 269 269 269 268 268 268
275 274 273 273 272 271 271 271 272 271 271 270 270 270 269 268 267 267 267 266 265 263 262 262 263 269 274 275 275 275 275 271 270 268 268 268 269 269 269 269 269 269
275 275 274 273 272 271 272 272 272 272 271 270 270 269 268 267 266 265 264 263 263 262 263 261 261 266 272 274 275 275 273 270 269 268 268 268 268 269 270 270 270 272
275 275 275 274 273 273 273 272 272 271 271 270 269 269 268 266 264 264 262 261 262 261 265 264 261 264 271 273 274 274 274 271 269 268 267 268 268 268 269 269 270 271
276 275 275 275 274 274 273 273 272 270 269 269 267 267 265 264 263 263 262 261 261 260 261 263 263 262 264 271 273 274 275 270 269 268 267 267 268 268 267 268 268 269
Wind_Speed
7 7 8 7 7 7 8 8 6 7 6 6 7 6 6 5 4 5 5 5 5 5 4 4 4 5 5 5 5 6 6 5 5 5 5 5 5 6 6 5 5 4
8 8 7 7 7 6 6 6 7 8 7 6 6 6 5 5 4 5 5 5 4 4 4 5 5 5 5 5 5 6 6 5 5 3 5 5 4 5 5 4 4 3
8 8 9 9 9 8 8 6 7 7 7 6 6 5 6 4 5 4 5 5 5 5 5 5 5 4 4 4 5 6 6 5 5 4 5 4 3 4 3 3 3 3
8 8 8 7 8 9 8 9 7 7 6 7 6 5 5 5 5 5 5 5 5 5 4 4 4 4 4 4 5 5 5 4 3 3 4 3 3 3 2 2 2 3
10 8 7 7 6 7 7 8 8 7 7 6 6 5 6 5 5 6 6 5 4 4 4 4 4 4 4 4 4 5 4 4 3 3 3 3 2 3 2 3 3 3
7 8 8 8 7 8 7 7 7 8 7 7 6 5 5 5 5 5 5 5 4 5 4 3 3 3 4 4 4 4 3 4 3 3 3 3 3 3 2 3 3 3
9 8 8 8 8 7 7 7 6 6 6 6 6 6 6 6 6 5 5 5 5 5 4 3 3 4 3 4 4 4 3 3 3 3 3 3 3 3 3 3 3 3
9 6 7 7 8 8 8 7 6 6 6 6 6 5 6 6 6 5 5 6 6 6 5 4 4 4 3 3 4 4 3 2 2 3 3 2 3 2 3 2 2 1
8 8 8 8 9 8 8 7 7 7 6 7 7 6 5 5 6 6 6 5 5 5 5 4 4 4 3 3 3 3 3 2 2 2 2 2 2 1 0 0 1 1
8 8 9 9 9 8 9 8 7 7 7 7 6 6 7 6 6 6 5 5 6 6 5 4 4 3 3 3 3 3 2 1 1 1 1 1 0 0 0 0 0 1
9 9 10 10 9 8 9 9 8 8 7 8 7 7 6 7 6 5 5 5 6 5 5 4 4 3 3 3 3 2 2 1 1 2 1 1 1 0 1 1 1 1
10 9 10 10 10 9 10 9 9 8 8 7 7 8 7 5 6 5 6 6 6 5 4 4 4 3 3 3 3 2 2 2 2 2 1 1 0 1 1 1 1 1
10 10 10 10 10 9 9 8 8 8 8 9 8 8 7 6 6 5 4 5 5 5 4 4 3 3 3 3 3 3 3 2 2 1 1 1 1 1 2 1 2 2
10 9 10 9 9 9 9 9 9 9 8 7 8 8 7 9 8 7 5 5 5 4 4 3 3 3 3 3 3 3 2 1 0 0 0 0 0 1 1 1 2 2
8 7 7 7 8 9 9 9 8 8 8 8 7 7 7 7 6 6 7 5 5 4 3 3 3 4 4 4 3 3 2 1 0 0 0 0 0 0 1 1 1 2
8 7 8 8 8 8 8 8 8 9 10 8 7 8 7 6 6 5 5 5 4 3 3 3 3 3 5 9 7 3 3 2 2 1 1 0 0 0 0 1 1 1
9 8 8 9 9 7 7 8 9 9 9 9 8 7 7 6 6 6 5 4 5 4 4 4 3 4 9 7 6 5 4 3 3 2 1 0 0 0 1 1 1 1
10 10 10 10 9 8 8 6 7 7 7 7 7 7 6 6 6 5 5 4 4 4 4 4 4 7 9 7 5 5 5 4 3 2 1 1 0 0 0 0 1 1
10 11 10 9 8 8 7 6 7 6 7 8 8 6 6 7 6 6 5 4 5 5 5 4 4 6 7 7 6 6 5 4 2 2 1 1 1 1 2 1 1 2
10 10 9 9 8 8 8 8 8 8 7 6 6 6 6 5 5 6 6 5 5 6 5 4 3 5 6 7 7 7 7 4 3 2 2 1 1 1 1 2 2 2
10 10 10 9 9 9 9 9 9 7 7 7 8 7 8 8 8 7 6 5 5 5 5 4 3 6 6 7 8 8 7 5 3 2 1 1 1 2 2 2 3 4
11 11 11 10 10 9 10 10 9 9 10 8 7 6 4 4 3 4 6 6 6 5 5 4 3 6 8 9 9 8 7 4 3 2 2 1 2 3 2 3 3 3
13 13 12 11 11 11 11 11 11 9 8 7 8 6 8 7 8 7 6 6 6 6 5 3 3 6 10 10 10 10 6 4 4 3 2 2 3 3 3 3 3 4
13 12 12 12 12 14 14 11 10 7 8 9 11 10 9 9 7 6 5 6 7 7 5 4 4 7 11 10 10 10 8 5 4 4 3 3 3 3 3 3 5 10
12 12 12 13 14 14 13 13 12 12 9 8 8 8 7 6 6 6 5 5 5 4 5 5 4 7 11 12 11 11 8 5 4 3 4 3 3 3 4 5 5 8
11 13 12 13 14 11 10 10 8 7 9 9 8 7 7 6 6 6 8 7 4 4 4 5 5 6 7 13 12 12 12 6 5 5 5 4 4 4 5 4 6 6
Wind_Direction
128 127 132 131 133 136 137 134 132 125 123 126 120 129 119 128 109 97 95 84 80 81 77 73 68 65 61 63 70 77 73 67 55 44 49 59 58 61 48 44 40 46
131 128 126 123 121 118 117 123 130 129 131 129 127 123 117 114 115 107 97 89 82 81 74 65 57 57 57 64 73 82 72 61 53 32 52 54 53 59 56 53 48 30
133 132 136 140 139 134 130 127 125 129 129 132 125 120 121 114 104 96 96 92 85 75 68 68 64 57 59 65 73 82 83 69 55 36 56 53 53 66 71 68 52 46
136 137 137 134 136 137 137 130 127 125 127 124 130 130 118 110 106 107 99 90 88 81 78 73 74 65 66 69 80 83 89 82 80 66 60 50 47 74 50 81 64 41
143 137 137 134 133 132 133 131 133 135 132 131 118 116 114 115 114 108 102 96 98 94 86 84 75 75 75 74 79 85 78 85 78 83 76 57 28 50 29 68 54 37
135 138 139 139 138 137 136 135 138 135 132 126 130 123 123 119 113 112 114 116 114 110 101 97 95 83 84 84 83 86 92 74 66 77 65 61 30 33 43 55 53 33
145 144 142 137 132 133 133 136 135 130 130 134 124 126 129 120 118 123 126 130 127 124 125 132 113 93 82 88 83 77 66 75 57 71 71 51 61 23 34 52 44 30
144 139 138 137 134 137 136 139 139 137 140 132 127 133 126 130 132 134 136 137 135 135 141 127 105 92 91 84 88 80 69 71 68 75 78 56 58 33 27 39 52 28
141 143 144 144 142 144 144 144 143 142 143 136 136 133 127 136 143 143 144 144 138 140 127 115 106 94 87 89 94 106 96 69 79 72 68 59 56 49 53 43 27 356
148 149 148 150 150 153 150 148 146 146 142 136 136 132 135 135 135 147 146 143 133 118 111 115 111 103 95 103 105 102 97 81 56 57 79 99 131 37 322 50 353 3
155 158 157 159 158 158 154 150 150 149 149 148 142 140 145 141 147 152 146 136 129 129 128 125 122 116 101 90 86 95 113 115 95 98 75 66 66 351 19 64 6 348
163 164 167 165 163 161 159 157 154 153 151 151 152 151 152 152 143 145 139 131 127 129 125 126 119 115 115 112 102 83 78 78 75 74 63 30 11 44 42 9 0 339
172 173 169 167 167 165 160 159 158 155 156 158 159 156 151 140 151 145 145 137 135 129 135 131 120 120 119 115 104 88 83 78 58 59 31 0 48 26 7 8 2 357
177 174 171 169 165 162 165 164 160 161 160 155 154 157 156 149 156 152 143 131 126 138 141 125 132 124 124 115 107 110 92 62 106 178 129 14 22 3 28 17 355 343
175 173 167 164 166 168 168 167 166 157 142 152 153 144 142 138 127 136 136 128 131 141 142 141 157 153 144 135 131 127 132 152 221 195 202 196 175 56 357 0 331 327
171 168 169 168 173 175 172 166 161 153 156 144 150 146 142 143 139 131 142 150 151 158 160 169 178 153 171 162 153 150 154 183 215 226 195 178 114 82 345 314 299 316
171 173 169 177 178 172 167 166 164 162 161 158 150 149 147 140 138 146 157 158 164 169 182 188 189 172 185 176 162 160 154 194 215 220 224 156 194 189 271 292 321 319
178 173 176 179 171 172 172 171 166 165 166 159 151 145 145 139 149 159 160 171 170 173 186 193 188 193 189 177 165 174 191 201 213 215 215 276 264 264 256 12 333 323
177 178 178 174 174 170 168 165 171 175 168 162 161 152 142 156 163 158 180 179 178 185 193 195 193 199 192 186 181 193 208 206 199 205 224 247 271 294 303 328 317 309
179 176 177 177 173 169 167 171 176 187 179 160 141 142 154 154 164 177 180 185 189 193 193 194 178 206 200 195 190 203 212 201 202 202 224 240 268 294 288 265 270 270
181 178 180 178 175 170 171 177 183 181 173 165 163 162 165 174 177 182 187 187 194 190 192 193 190 205 210 208 204 205 209 204 151 172 182 224 245 244 248 242 251 250
181 184 184 179 174 173 177 182 183 188 177 168 157 155 155 146 170 173 184 192 194 187 189 196 222 220 224 217 210 202 206 181 162 173 196 215 246 254 254 244 242 243
186 186 185 180 178 177 184 186 181 186 184 166 158 153 151 182 186 185 186 185 192 196 191 194 214 234 228 217 209 202 186 129 178 181 199 213 239 246 255 253 242 240
187 185 185 184 181 187 188 189 187 188 178 171 165 165 184 193 177 172 187 189 194 200 187 188 220 236 231 221 209 205 186 173 181 180 199 216 226 243 245 251 249 263
187 189 191 189 190 193 189 185 186 187 179 168 166 170 180 163 164 171 186 201 203 192 196 202 222 237 235 226 215 206 194 156 162 162 199 206 204 227 240 233 246 252
191 192 194 194 198 192 188 191 178 169 173 167 162 161 162 168 166 175 189 202 191 182 211 217 223 233 240 233 220 209 196 171 173 185 194 202 216 217 228 246 243 246